Location: Big Bottom Creek
(37.9695°N, 90.2001°W)
Time: 21:38:16
(UTC+00:00)

Daily predictions for brighter satellites

Satellite Brightness Start Highest point End
(mag) Time Altitude Azimuth Time Altitude Azimuth Time Altitude Azimuth
Milstar 3 Cent rocket 4.3 12:03:09 10° SW 12:07:06 19° S 12:12:34 10° SSE
ATLAS 3B R/B 4.5 12:05:56 10° NW 12:08:46 13° NNW 12:11:57 10° N
Cosmos 1933 4.4 12:06:18 11° NW 12:09:16 23° W 12:12:26 10° SW
ERS-2 1.8 12:07:00 10° N 12:09:47 42° WNW 12:12:33 10° SW
SAR-Lupe-2 3.5 12:07:25 10° N 12:10:58 69° WNW 12:14:30 10° SSW
CZ-4C R/B 4.4 12:04:51 10° NNW 12:11:21 33° NE 12:18:53 10° ESE
PSLV R/B 4.0 12:09:02 10° N 12:12:59 37° WNW 12:16:54 10° SW
COSMO-SKYMED 1 3.8 12:11:04 10° SSW 12:14:28 22° W 12:17:53 10° NW
Cosmos 1862 4.2 12:11:29 10° SW 12:14:42 25° WNW 12:17:56 10° NNW
Cosmos 2151 3.1 12:10:41 10° SSW 12:14:43 48° W 12:18:49 10° N
SeaSat 1 4.2 12:12:05 10° ESE 12:16:13 28° NE 12:20:22 10° N
USA 215 3.5 12:14:45 10° NE 12:21:01 51° NW 12:27:16 10° WSW
Meteor 1-31 Rocket 2.9 12:18:34 10° NNE 12:22:22 76° ESE 12:26:09 10° S
GENESIS II 4.2 12:20:37 10° SW 12:24:23 57° WNW 12:28:13 10° NNE
BlueWalker 3 3.7 12:25:57 10° W 12:28:34 18° SW 12:31:10 10° S
SMAP 3.0 12:30:53 10° N 12:35:31 69° WNW 12:40:08 10° SSW
BREEZE-M R/B 4.3 12:33:09 10° WNW 12:38:52 31° WSW 12:42:09 10° S
USA 234 3.4 23:01:18 10° NE 23:07:48 64° SE 23:14:15 10° SSW
SJ-7 4.3 23:04:58 10° SSE 23:08:54 72° ENE 23:12:54 10° N
Cosmos 2227 Rocket 4.4 23:05:56 10° W 23:09:56 20° NW 23:13:59 10° N
Cosmos 2227 4.4 23:04:40 10° S 23:10:18 59° ESE 23:15:57 10° NNE
Cosmos 1140 Rocket 4.1 23:05:48 10° N 23:10:27 33° ENE 23:15:02 10° SE
Cosmos 1076 Rocket 3.6 23:06:48 10° N 23:11:10 90° WSW 23:15:29 10° S
Cosmos 1602 3.8 23:10:24 10° N 23:14:01 48° E 23:17:39 10° SSE
Nadezhda 4 Rocket 4.0 23:09:46 10° S 23:15:49 62° E 23:21:50 10° NNE
Cosmos 1782 3.8 23:16:01 10° SE 23:19:12 25° E 23:22:24 10° NE
Cosmos 1500 3.6 23:20:07 10° NNW 23:23:36 61° W 23:27:04 10° S
DMSP B5D2-2 4.4 23:19:46 10° N 23:24:58 72° WNW 23:30:09 10° SSW
Helios 1B rocket 3.5 23:22:42 10° S 23:26:29 48° W 23:30:19 10° NNW
Cosmos 1812 Rocket 3.6 23:22:57 10° S 23:27:10 56° E 23:31:27 10° NNE
SL-8 R/B 4.1 23:23:29 10° NW 23:28:04 45° NNE 23:32:40 10° E
Cosmos 1603 4.2 23:23:03 10° N 23:28:15 35° ENE 23:33:21 10° SE
CZ-4B R/B 3.5 23:25:55 10° SSE 23:29:27 65° ENE 23:33:02 10° N
Helios 1A 3.2 23:26:20 10° NNE 23:30:21 47° E 23:34:20 10° S
ISS -3.9 23:28:36 10° NW 23:31:57 72° NE 23:35:16 10° ESE
CZ-2C R/B 3.0 23:33:10 10° SW 23:34:27 13° SSW 23:35:42 10° S
H-2A R/B 2.8 23:33:04 10° SW 23:35:06 23° S 23:39:04 10° ESE
CZ-4B R/B 3.8 23:30:51 10° SE 23:35:37 42° ENE 23:40:17 10° N
SMAP 3.1 23:31:59 10° SSE 23:36:37 84° W 23:41:18 10° NNW
SL-16 R/B 4.1 23:36:00 10° NW 23:41:03 34° WSW 23:46:04 10° SSW
NOAA 6 4.4 23:40:52 10° SE 23:45:38 41° ENE 23:50:26 10° N
Cosmos 1943 3.1 23:46:18 10° NNW 23:51:58 82° ENE 23:57:37 10° SSE
Cosmos-2242 3.9 23:50:49 10° SSW 23:55:02 50° W 23:59:14 10° N
